SWA2177 KLAX-KLAS

Flight info

Callsign SWA2177
Flight time N/A
Altitude 29000
Route ORCKA5 MISEN RNDRZ3
Aircraft B38M/M-SDE1FGHILORVWXY/HB1

Departure

Time 2026-04-20 22:57
Airport Los Angeles International Airport (KLAX)

Arrival

Time N/A
Airport Harry Reid International Airport (KLAS)
Time Latitude Longitude Altitude Speed Heading
2026-04-20 22:13 33.94794 -118.40127 125 ft 0 kts 187°
2026-04-20 22:48 33.94795 -118.40126 125 ft 0 kts 187°
2026-04-20 22:48 33.94797 -118.40126 125 ft 0 kts 187°
2026-04-20 22:48 33.94812 -118.40124 121 ft 3 kts 177°
2026-04-20 22:48 33.94830 -118.40130 121 ft 3 kts 145°
2026-04-20 22:49 33.94843 -118.40146 121 ft 3 kts 113°
2026-04-20 22:49 33.94848 -118.40168 121 ft 3 kts 82°
2026-04-20 22:49 33.94841 -118.40190 119 ft 3 kts 63°
2026-04-20 22:49 33.94832 -118.40210 120 ft 3 kts 71°
2026-04-20 22:50 33.94830 -118.40217 121 ft 0 kts 80°
2026-04-20 22:54 33.94832 -118.40200 122 ft 8 kts 84°
2026-04-20 22:55 33.94844 -118.40104 124 ft 10 kts 65°
2026-04-20 22:55 33.94906 -118.40069 124 ft 11 kts 41°
2026-04-20 22:55 33.94929 -118.39981 125 ft 11 kts 81°
2026-04-20 22:55 33.94951 -118.39927 124 ft 0 kts 43°
2026-04-20 22:56 33.94971 -118.39916 121 ft 15 kts 18°
2026-04-20 22:56 33.95038 -118.40008 124 ft 19 kts 257°
2026-04-20 22:56 33.95031 -118.40064 123 ft 0 kts 266°
2026-04-20 22:57 33.95024 -118.40133 125 ft 37 kts 262°
2026-04-20 22:57 33.94957 -118.40783 125 ft 117 kts 263°
2026-04-20 22:57 33.94828 -118.42025 162 ft 179 kts 263°
2026-04-20 22:57 33.94681 -118.43575 1004 ft 187 kts 262°
2026-04-20 22:58 33.94491 -118.45125 2233 ft 184 kts 257°
2026-04-20 22:58 33.94241 -118.46610 3285 ft 183 kts 253°
2026-04-20 22:58 33.93825 -118.48157 3878 ft 206 kts 245°
2026-04-20 22:58 33.92910 -118.49556 4165 ft 229 kts 209°
2026-04-20 22:59 33.91352 -118.49983 4748 ft 232 kts 168°
2026-04-20 22:59 33.90011 -118.49090 5831 ft 220 kts 131°
2026-04-20 22:59 33.89458 -118.47418 6694 ft 222 kts 95°
2026-04-20 22:59 33.89814 -118.45562 7219 ft 243 kts 62°
2026-04-20 23:00 33.90863 -118.43937 7922 ft 241 kts 57°
2026-04-20 23:00 33.91745 -118.42415 9344 ft 206 kts 57°
2026-04-20 23:00 33.92617 -118.41058 10099 ft 212 kts 54°
2026-04-20 23:00 33.93620 -118.39649 10439 ft 222 kts 50°
2026-04-20 23:01 33.94811 -118.38508 11017 ft 227 kts 22°
2026-04-20 23:01 33.96281 -118.37604 11195 ft 246 kts 40°